• Processing (Info)

  • MPEC 2000-C12 : 2000 BG19

    The following Minor Planet Electronic Circular may be linked-to from your own Web pages, but must not otherwise be redistributed electronically.

    A form allowing access to any MPEC is at the bottom of this page.


    Read MPEC 2000-C11 Read MPEC 2000-C13


    M.P.E.C. 2000-C12                                Issued 2000 Feb. 3, 17:24 UT
    
         The Minor Planet Electronic Circulars contain information on unusual
             minor planets and routine data on comets.  They are published
       on behalf of Commission 20 of the International Astronomical Union by the
              Minor Planet Center, Smithsonian Astrophysical Observatory,
                              Cambridge, MA 02138, U.S.A.
    
                 Prepared using the Tamkin Foundation Computer Network
    
                 BMARSDEN@CFA.HARVARD.EDU or GWILLIAMS@CFA.HARVARD.EDU
              URL http://cfa-www.harvard.edu/iau/mpc.html  ISSN 1523-6714
    
                                       2000 BG19
    
    Observations:
         K00B19G* C2000 01 28.50301 11 03 32.93 +04 28 05.9          19.3 V      691
         K00B19G  C2000 01 28.51907 11 03 33.46 +04 28 14.5          19.4 V      691
         K00B19G  C2000 01 28.53514 11 03 33.95 +04 28 23.0          19.3 V      691
         K00B19G  C2000 01 29.45633 11 04 04.96 +04 36 39.5                      691
         K00B19G  C2000 01 29.46221 11 04 05.12 +04 36 42.5                      691
         K00B19G  C2000 01 29.46773 11 04 05.27 +04 36 45.9                      691
         K00B19G  C2000 01 30.50967 11 04 38.62 +04 46 40.8          19.2 V      691
         K00B19G  C2000 01 30.51352 11 04 38.72 +04 46 43.1          19.2 V      691
         K00B19G  C2000 01 30.51740 11 04 38.85 +04 46 45.2          19.2 V      691
         K00B19G  C2000 02 02.10216 11 05 56.06 +05 13 58.6                      118
         K00B19G  C2000 02 02.10882 11 05 56.28 +05 14 03.4          18.5 R      118
         K00B19G  C2000 02 02.11376 11 05 56.38 +05 14 05.9                      118
         K00B19G  C2000 02 02.56534 11 06 09.53 +05 19 29.9          19.6 R      422
         K00B19G  C2000 02 02.57014 11 06 09.64 +05 19 33.2          19.3 R      422
         K00B19G  C2000 02 02.57251 11 06 09.75 +05 19 34.7          19.6 R      422
    
    Observer details:
    118 Modra.  Observers A. Galad, P. Koleny.  0.6-m f/5.5 reflector + CCD.
    422 Loomberah.  Observer G. J. Garradd.  0.45-m f/5.4 reflector + CCD.
    691 Steward Observatory, Kitt Peak.  Observers J. V. Scotti, A. E. Gleason.
        0.9-m Spacewatch telescope.
    
    Orbital elements:
    2000 BG19
    Epoch 2000 Jan. 17.0 TT = JDT 2451560.5                 Williams
    M 331.89908              (2000.0)            P               Q
    n   0.22480753     Peri.   79.48211     -0.66314358     +0.73951151
    a   2.6787292      Node   148.00973     -0.74325308     -0.63235944
    e   0.5594880      Incl.   12.60365     -0.08840504     -0.23074718
    P   4.38           H   17.6           G   0.15
    From 15 observations 2000 Jan. 28-Feb. 2.
    
    Ephemeris:
    2000 BG19                a,e,i = 2.68, 0.56, 13                  q = 1.1800
    Date    TT    R. A. (2000) Decl.     Delta      r     Elong.  Phase     V
    2000 01 27    11 02.68   +04 15.7    0.847    1.728   141.2    20.9    19.5
    2000 02 06    11 07.60   +06 02.7    0.726    1.658   150.9    16.8    18.9
    2000 02 16    11 10.31   +08 52.7    0.622    1.589   161.2    11.5    18.3
    2000 02 26    11 10.93   +12 53.0    0.538    1.522   170.1     6.4    17.7
    2000 03 07    11 09.94   +17 58.9    0.473    1.458   167.3     8.6    17.4
    2000 03 17    11 08.67   +23 45.8    0.429    1.397   155.6    17.1    17.4
    2000 03 27    11 09.17   +29 33.0    0.402    1.341   143.1    26.5    17.5
    2000 04 06    11 13.71   +34 38.9    0.388    1.292   131.7    35.3    17.6
    2000 04 16    11 24.48   +38 33.6    0.382    1.250   122.2    42.8    17.7
    2000 04 26    11 42.59   +41 03.6    0.379    1.216   115.0    48.6    17.7
    2000 05 06    12 07.93   +42 00.8    0.379    1.193   110.1    52.5    17.8
    2000 05 16    12 39.36   +41 18.3    0.379    1.181   107.5    54.7    17.8
    2000 05 26    13 14.66   +38 51.4    0.380    1.181   107.0    55.1    17.9
    2000 06 05    13 51.37   +34 38.6    0.385    1.193   108.3    53.8    17.9
    2000 06 15    14 27.53   +28 50.2    0.397    1.216   111.1    51.2    17.9
    2000 06 25    15 01.77   +21 52.9    0.418    1.249   114.5    47.7    18.0
    2000 07 05    15 33.60   +14 24.8    0.453    1.292   117.7    44.2    18.1
    2000 07 15    16 03.16   +07 07.7    0.504    1.341   119.9    41.0    18.4
    2000 07 25    16 30.71   +00 33.9    0.572    1.397   120.7    38.7    18.7
    2000 08 04    16 56.63   -05 00.2    0.657    1.458   119.9    37.1    19.0
    2000 08 14    17 21.35   -09 31.0    0.758    1.522   117.8    36.1    19.4
    2000 08 24    17 45.08   -13 02.8    0.874    1.589   114.7    35.3    19.8
    2000 09 03    18 08.03   -15 43.2    1.004    1.658   111.0    34.6    20.1
    2000 09 13    18 30.36   -17 40.3    1.146    1.728   106.7    33.9    20.5
    2000 09 23    18 52.12   -19 01.2    1.298    1.799   102.0    33.1    20.8
    2000 10 03    19 13.37   -19 52.3    1.460    1.870    97.1    32.1    21.1
    2000 10 13    19 34.14   -20 18.4    1.629    1.941    92.0    30.9    21.4
    2000 10 23    19 54.41   -20 23.7    1.804    2.011    86.8    29.6    21.7
    2000 11 02    20 14.23   -20 11.7    1.984    2.081    81.4    28.1    21.9
    
    Gareth V. Williams           (C) Copyright 2000 MPC           M.P.E.C. 2000-C12
    

    Read MPEC 2000-C11 Read MPEC 2000-C13


    MPEC number:

    Enter an MPEC number in one of the following forms:

    • 1997-B01 (the full form)
    • J97B01 (the packed version of the full form)
    • B01 (the abbreviated form)